Location: Poughquag
(41.6090°N, 73.6820°W)
Time: 14:21:22
(UTC-04:00)

Courier 1B - Pass Details

Date: 04 June 2020
Orbit: 962 x 1209 km, 28.3° (Epoch: 05 July)

Event Time Altitude Azimuth Distance (km) Brightness Sun altitude
Exits shadow 03:49:44 17° 204° (SSW) 2,651 9.2 -14.0°
Maximum altitude 03:49:57 17° 202° (SSW) 2,651 9.2 -14.0°
Drops below altitude 10° 03:54:33 10° 166° (SSE) 3,137 9.8 -13.4°
Sets 03:58:37 0° 147° (SSE) 4,094 10.6 -12.9°
